Regional Weather Roundup
Issued by NWS Goodland, KS

Home | Current Version | Previous Version | Graphics & Text | Print | Product List | Glossary On
Versions: 1 2 3 4 5 6 7 8 9 10 11 12 13 14 15 16 17 18 19 20 21 22 23 24 25 26 27 28 29 30 31 32 33 34 35 36 37 38 39 40 41 42 43 44 45 46 47 48 49 50
000
ASUS43 KGLD 250308
RWRGLD

GOODLAND FORECAST AREA HOURLY WEATHER ROUNDUP
NATIONAL WEATHER SERVICE GOODLAND KS
800 PM MST SAT JAN 24 2015

...OFFICIAL OBSERVATIONS...

CITY           SKY/WX    TMP DP  RH WIND       PRES   REMARKS
GOODLAND KS    CLOUDY    45  32  60 NW23      29.98R
HILL CITY KS   CLOUDY    48  34  58 NW15G24   29.86S
IMPERIAL NEB   CLOUDY    43  34  70 NW23G37   29.92S
MCCOOK NEB     MOCLDY    48  31  51 NW17G24   29.87S
AKRON CO       CLOUDY    37  32  82 N32G46    30.09R
BURLINGTON CO  CLOUDY    41  31  67 NW12      30.01R
LIMON CO       MOCLDY    41  25  53 NW16      30.07R
$$

...UNOFFICIAL OBSERVATIONS...

CITY           SKY/WX    TMP DP  RH WIND       PRES   REMARKS
COLBY KS       CLOUDY    46  36  66 W23G30    29.95R
GOVE KS          N/A     50  32  50 MISG        N/A
NORTON KS      PTCLDY    43  28  56 W15       29.83F
SHARON SPRINGS   N/A     44  30  58 NW10G20     N/A
KIT CARSON CO    N/A     44  30  57 MISG        N/A
YUMA CO          N/A     40  31  70 NW30G39     N/A
$$



USA.gov is the U.S. government's official web portal to all federal, state and local government web resources and services.